Quebec, Canada

10:13 PM EDT on September 03, 2015 (GMT -0400)
Quebec-Lesage International | | Change Station
CLOSE
Current Station
Airport
Location: Quebec,
Elevation: 243 ft
Nearby Weather Stations

Elev 243 ft 46.79 °N, 71.39 °W | Updated 13 minutes ago

Clear
Clear
61 °F
Feels Like 61 °F
N
5
Wind Variable Wind from NNE

Today
High -- | Low -- °F
--% Chance of Precip.
Yesterday
High -- | Low -- °F
Precip. -- in
6:07 AM 7:21 PM
Waning Gibbous, 64% visible
Pressure 30.04 in
Visibility 15.0 miles
Clouds Clear
Dew Point 52 °F
Humidity 72%
Rainfall 0.00 in
Snow Depth Not available.
UV 0 out of 12
Pollen Not available.
Air Quality Not available.
Flu Activity Not available.
METAR CYQB 040200Z 02004KT 15SM SKC 16/11 A3004 RMK SLP171 DENSITY ALT 300FT
Pressure 30.04 in
Visibility 15.0 miles
Clouds Clear
Dew Point 52 °F
Humidity 72%
Rainfall 0.00 in
Snow Depth Not available.
UV 0 out of 12
Pollen Not available.
Air Quality Not available.
Flu Activity Not available.
METAR CYQB 040200Z 02004KT 15SM SKC 16/11 A3004 RMK SLP171 DENSITY ALT 300FT

10-Day Weather Forecast

×

Almanac

Astronomy

Sep. 03, 2015 Rise Set
Actual Time
Civil Twilight
Nautical Twilight
Astronomical Twilight
Moon
Length of Visible Light
Length of Day
Tomorrow will be .
, % of the Moon is Illuminated

Today's Extremes

Country Highs Country Lows

Community

WunderPhotos

Upload Photos

1,852,096 photos uploaded!

WunderBlogs® & News

Nearby

Air Quality

  Air Quality AQ Index Pollutant
Not available.

Snow Depth

Station Depth Elevation

Earthquake Activity

City Distance Mag. Time & Date
Minimum magnitude displayed is 2.5.

Coastal Water Temperatures

Place Temperature

Stations

Nearby Weather Stations

Station Location Temp. Windchill Dew Point Humidity Wind Precip. Elev Updated Type